Location: Wildlife_Club
(35.6000°N, 81.4330°W)
Time: 17:36:08
(UTC-04:00)

Amateur Radio Satellites - All Passes

Search period start: 22 August 2014 17:06
Search period end: 23 August 2014 17:06
Location: Wildlife_Club, 35.6000°N, 81.4330°W

Satellite Date Start Highest point End Downlink Frequencies (MHz)
Time Altitude Azimuth
PANSAT 22 Aug 17:44:39 17:47:54 26° 174° (S) 17:51:08 not established
Hamsat 22 Aug 17:46:54 17:50:01 20° 69° (ENE) 17:53:09 145.90 MHz
OPAL 22 Aug 17:57:50 18:03:04 89° 106° (ESE) 18:08:17 ?
JAS-2 22 Aug 17:58:19 18:04:20 36° 71° (ENE) 18:09:44 435.800 - 435.900 CW/SSB, 435.910 FM
AO-7 22 Aug 18:05:23 18:12:45 35° 262° (W) 18:20:10 29.400 - 29.500 MHz
UOSAT-12 22 Aug 18:14:13 18:18:42 44° 245° (WSW) 18:23:06 437.025 FM, 437.400 FM
RS-15 22 Aug 18:38:10 18:49:05 58° 55° (NE) 19:00:23 29.354 - 29.394 USB, Beacon 29.352 USB
Sapphire 22 Aug 18:55:39 19:00:37 39° 110° (ESE) 19:05:37 437.095 MHz 1200 baud AX-25 AFSK
Hamsat 22 Aug 19:22:03 19:25:45 29° 264° (W) 19:29:31 145.90 MHz
PANSAT 22 Aug 19:24:26 19:27:38 25° 187° (S) 19:30:50 not established
PCSat 22 Aug 19:25:35 19:30:59 82° 115° (ESE) 19:36:25 145.825 MHz
STRAND 1 22 Aug 19:27:26 19:31:40 26° 96° (E) 19:35:54 ?
OPAL 22 Aug 19:40:08 19:41:10 11° 301° (WNW) 19:42:12 ?
JAS-2 22 Aug 19:43:16 19:49:19 33° 262° (W) 19:54:47 435.800 - 435.900 CW/SSB, 435.910 FM
HO-68 22 Aug 20:03:13 20:07:22 17° 58° (ENE) 20:11:30 435.675 MHz FM
SO-67 22 Aug 20:06:54 20:10:18 55° 260° (W) 20:13:43 435.3500 MHz FM
ISS 22 Aug 20:21:25 20:23:54 19° 30° (NNE) 20:26:22 145.800 FM
Sapphire 22 Aug 20:39:38 20:44:07 26° 306° (NW) 20:48:37 437.095 MHz 1200 baud AX-25 AFSK
RS-15 22 Aug 20:51:08 21:00:56 37° 253° (WSW) 21:11:07 29.354 - 29.394 USB, Beacon 29.352 USB
PANSAT 22 Aug 21:05:24 21:07:16 13° 199° (SSW) 21:09:08 not established
STRAND 1 22 Aug 21:06:22 21:10:48 31° 291° (WNW) 21:15:14 ?
PCSat 22 Aug 21:12:13 21:15:03 14° 313° (NW) 21:17:53 145.825 MHz
HO-68 22 Aug 21:46:59 21:54:08 86° 254° (WSW) 22:01:19 435.675 MHz FM
Oscar 10/S400 22 Aug 21:57:29 22:19:19 71° 171° (S) 07:31:08 145.825 - 145.975 CW/USB, Beacon 145.810 USB
ISS 22 Aug 21:57:35 22:00:47 45° 226° (SW) 22:03:58 145.800 FM
UKube-1 22 Aug 22:03:21 22:07:42 81° 76° (ENE) 22:12:04 145.840 MHz, 145.915 MHz
Oscar 11 22 Aug 22:18:58 22:23:15 68° 76° (ENE) 22:27:34 145.825 FM, Beacon 2401.500 USB
FUNcube-1 22 Aug 22:21:18 22:24:38 24° 70° (ENE) 22:27:59 145.950 - 145.970 MHz USB
AO-40 22 Aug 23:15:17 02:05:19 39° 195° (SSW) 07:32:20 Beacon 2401.320
HO-68 22 Aug 23:40:14 23:42:39 12° 270° (W) 23:45:04 435.675 MHz FM
FUNcube-1 22 Aug 23:57:41 00:00:57 22° 265° (W) 00:04:14 145.950 - 145.970 MHz USB
Saudisat 1A 23 Aug 00:02:03 00:02:49 10° 107° (ESE) 00:03:36 436.775 MHz
MaSat-1 23 Aug 00:32:30 00:35:30 16° 52° (NE) 00:38:19 437.345 MHz
KITSAT 1 23 Aug 00:35:54 00:42:32 29° 105° (ESE) 00:49:10 435.175 FM
Saudisat 1A 23 Aug 01:37:27 01:41:49 64° 301° (WNW) 01:46:13 436.775 MHz
Oscar 16 23 Aug 01:53:33 01:56:52 17° 93° (E) 02:00:10 437.025 USB, Beacon 2401.1428
MaSat-1 23 Aug 02:08:30 02:12:59 47° 252° (WSW) 02:16:53 437.345 MHz
JAS-1B 23 Aug 02:17:57 02:19:23 11° 85° (E) 02:20:47 435.800 - 435.900 CW/SSB
KITSAT 1 23 Aug 02:29:31 02:37:25 56° 302° (WNW) 02:45:23 435.175 FM
AO-Echo 23 Aug 02:55:32 02:59:39 30° 97° (E) 03:03:44 ?
Oscar 19 23 Aug 02:57:55 03:03:08 75° 102° (ESE) 03:08:19 437.125 CW, 437.150 USB
ITAMSAT 1 23 Aug 03:10:47 03:15:40 41° 99° (E) 03:20:31 435.822 SSB
Gurwin Techsat 1B 23 Aug 03:17:23 03:21:16 20° 94° (E) 03:25:08 435.225 FM
Uribyol 2 23 Aug 03:22:51 03:27:58 59° 101° (E) 03:33:04 436.500 FM
Oscar 16 23 Aug 03:31:26 03:36:26 49° 288° (WNW) 03:41:25 437.025 USB, Beacon 2401.1428
OPAL 23 Aug 03:34:46 03:36:47 12° 60° (ENE) 03:38:48 ?
AO-27 23 Aug 03:37:15 03:42:27 79° 103° (ESE) 03:47:38 436.795 MHz FM
Sapphire 23 Aug 03:47:10 03:50:57 19° 50° (NE) 03:54:43 437.095 MHz 1200 baud AX-25 AFSK
JAS-1B 23 Aug 04:04:02 04:11:19 87° 285° (WNW) 04:17:25 435.800 - 435.900 CW/SSB
TMSAT-1 23 Aug 04:13:36 04:18:48 54° 100° (E) 04:23:57 436.925 FM
PCSat 23 Aug 04:16:49 04:21:46 35° 57° (ENE) 04:26:40 145.825 MHz
AO-7 23 Aug 04:18:56 04:23:48 17° 92° (E) 04:28:38 29.400 - 29.500 MHz
KITSAT 1 23 Aug 04:31:11 04:34:47 13° 325° (NW) 04:38:24 435.175 FM
AO-Echo 23 Aug 04:34:35 04:38:16 23° 292° (WNW) 04:41:56 ?
Oscar 19 23 Aug 04:39:51 04:41:47 12° 298° (WNW) 04:43:43 437.125 CW, 437.150 USB
ITAMSAT 1 23 Aug 04:51:02 04:54:50 21° 294° (WNW) 04:58:38 435.822 SSB
Gurwin Techsat 1B 23 Aug 04:56:23 05:01:22 42° 289° (WNW) 05:06:19 435.225 FM
Uribyol 2 23 Aug 05:04:00 05:06:54 15° 296° (WNW) 05:09:49 436.500 FM
OPAL 23 Aug 05:10:01 05:14:59 72° 256° (WSW) 05:20:03 ?
Uosat F 23 Aug 05:16:33 05:21:14 40° 99° (E) 05:25:54 435.120 FM
AO-27 23 Aug 05:19:39 05:21:15 11° 298° (WNW) 05:22:51 436.795 MHz FM
Sapphire 23 Aug 05:29:26 05:34:45 59° 247° (WSW) 05:40:03 437.095 MHz 1200 baud AX-25 AFSK
SO-50 23 Aug 05:36:21 05:40:07 27° 112° (ESE) 05:43:56 436.795 FM
TMSAT-1 23 Aug 05:54:54 05:58:14 17° 295° (WNW) 06:01:33 436.925 FM
JAS-1B 23 Aug 05:57:29 06:00:28 13° 307° (NW) 06:03:17 435.800 - 435.900 CW/SSB
PCSat 23 Aug 06:00:27 06:05:00 28° 252° (WSW) 06:09:32 145.825 MHz
AO-7 23 Aug 06:09:03 06:17:22 85° 288° (WNW) 06:25:39 29.400 - 29.500 MHz
STRAND 1 23 Aug 06:40:38 06:44:58 29° 69° (ENE) 06:49:18 ?
JAS-2 23 Aug 06:55:04 06:59:44 34° 98° (E) 07:04:36 435.800 - 435.900 CW/SSB, 435.910 FM
Uosat F 23 Aug 06:56:05 06:59:43 21° 294° (WNW) 07:03:20 435.120 FM
Hamsat 23 Aug 07:10:06 07:14:26 60° 100° (E) 07:18:42 145.90 MHz
SO-50 23 Aug 07:16:47 07:20:35 27° 308° (NW) 07:24:29 436.795 FM
SO-67 23 Aug 07:35:24 07:36:42 12° 93° (E) 07:38:00 435.3500 MHz FM
AO-7 23 Aug 08:04:06 08:08:57 17° 306° (NW) 08:13:47 29.400 - 29.500 MHz
STRAND 1 23 Aug 08:19:41 08:24:03 28° 263° (W) 08:28:26 ?
UOSAT-12 23 Aug 08:22:07 08:26:41 74° 300° (WNW) 08:31:23 437.025 FM, 437.400 FM
KITSAT 1 23 Aug 08:34:21 08:35:50 11° 30° (NNE) 08:37:18 435.175 FM
JAS-2 23 Aug 08:40:39 08:44:42 24° 292° (WNW) 08:48:52 435.800 - 435.900 CW/SSB, 435.910 FM
Hamsat 23 Aug 08:48:45 08:49:49 11° 295° (WNW) 08:50:54 145.90 MHz
RS-15 23 Aug 08:58:03 09:08:32 49° 110° (ESE) 09:18:47 29.354 - 29.394 USB, Beacon 29.352 USB
SO-67 23 Aug 09:06:46 09:09:49 29° 287° (WNW) 09:12:51 435.3500 MHz FM
HO-68 23 Aug 09:19:20 09:24:29 21° 94° (E) 09:29:36 435.675 MHz FM
UKube-1 23 Aug 09:55:48 09:58:39 17° 95° (E) 10:01:30 145.840 MHz, 145.915 MHz
Saudisat 1A 23 Aug 10:07:03 10:11:15 41° 56° (NE) 10:15:24 436.775 MHz
Oscar 11 23 Aug 10:10:56 10:13:34 16° 93° (E) 10:16:12 145.825 FM, Beacon 2401.500 USB
KITSAT 1 23 Aug 10:26:00 10:33:40 44° 54° (NE) 10:41:15 435.175 FM
HO-68 23 Aug 11:05:33 11:12:35 63° 289° (WNW) 11:19:36 435.675 MHz FM
RS-15 23 Aug 11:10:26 11:20:52 45° 310° (NW) 11:31:13 29.354 - 29.394 USB, Beacon 29.352 USB
UKube-1 23 Aug 11:30:59 11:34:55 34° 289° (WNW) 11:38:50 145.840 MHz, 145.915 MHz
Oscar 11 23 Aug 11:45:49 11:49:52 38° 287° (WNW) 11:53:54 145.825 FM, Beacon 2401.500 USB
Saudisat 1A 23 Aug 11:47:41 11:50:28 17° 251° (WSW) 11:53:14 436.775 MHz
FUNcube-1 23 Aug 11:48:16 11:52:44 82° 102° (ESE) 11:57:18 145.950 - 145.970 MHz USB
KITSAT 1 23 Aug 12:21:38 12:28:53 38° 252° (WSW) 12:36:06 435.175 FM
JAS-1B 23 Aug 12:57:04 13:01:49 15° 55° (NE) 13:06:25 435.800 - 435.900 CW/SSB
ISS 23 Aug 13:01:50 13:04:32 23° 130° (SE) 13:07:15 145.800 FM
Oscar 16 23 Aug 13:07:54 13:11:28 19° 66° (ENE) 13:15:02 437.025 USB, Beacon 2401.1428
RS-15 23 Aug 13:31:31 13:37:09 15° 341° (NNW) 13:42:49 29.354 - 29.394 USB, Beacon 29.352 USB
AO-Echo 23 Aug 14:05:23 14:09:54 31° 70° (ENE) 14:14:19 ?
SO-50 23 Aug 14:11:12 14:13:56 15° 46° (NE) 14:16:41 436.795 FM
Oscar 19 23 Aug 14:11:47 14:16:55 80° 76° (ENE) 14:22:06 437.125 CW, 437.150 USB
MaSat-1 23 Aug 14:19:51 14:21:28 12° 98° (E) 14:23:07 437.345 MHz
ITAMSAT 1 23 Aug 14:25:54 14:30:50 46° 72° (ENE) 14:35:46 435.822 SSB
Gurwin Techsat 1B 23 Aug 14:35:39 14:39:54 25° 68° (ENE) 14:44:09 435.225 FM
Uribyol 2 23 Aug 14:37:48 14:42:54 66° 74° (ENE) 14:48:01 436.500 FM
ISS 23 Aug 14:38:13 14:41:10 29° 325° (NW) 14:44:07 145.800 FM
JAS-1B 23 Aug 14:40:56 14:50:42 67° 71° (ENE) 15:00:01 435.800 - 435.900 CW/SSB
Oscar 16 23 Aug 14:45:32 14:50:26 45° 261° (W) 14:55:22 437.025 USB, Beacon 2401.1428
AO-27 23 Aug 14:52:26 14:57:38 88° 77° (ENE) 15:02:50 436.795 MHz FM
AO-7 23 Aug 15:15:12 15:20:51 21° 56° (NE) 15:26:28 29.400 - 29.500 MHz
TMSAT-1 23 Aug 15:31:23 15:36:36 63° 74° (ENE) 15:41:49 436.925 FM
PANSAT 23 Aug 15:40:56 15:43:12 15° 163° (SSE) 15:45:27 not established
AO-Echo 23 Aug 15:44:18 15:48:36 26° 264° (W) 15:52:50 ?
SO-50 23 Aug 15:50:11 15:54:58 69° 243° (WSW) 15:59:46 436.795 FM
RS-15 23 Aug 15:50:43 15:56:28 15° 20° (NNE) 16:02:15 29.354 - 29.394 USB, Beacon 29.352 USB
MaSat-1 23 Aug 15:53:09 15:57:46 66° 295° (WNW) 16:02:51 437.345 MHz
ITAMSAT 1 23 Aug 16:07:06 16:10:31 18° 266° (W) 16:13:57 435.822 SSB
Gurwin Techsat 1B 23 Aug 16:14:49 16:19:38 36° 262° (W) 16:24:30 435.225 FM
Uribyol 2 23 Aug 16:20:48 16:22:47 12° 268° (W) 16:24:46 436.500 FM
Uosat F 23 Aug 16:26:57 16:31:38 41° 71° (ENE) 16:36:18 435.120 FM
JAS-1B 23 Aug 16:33:13 16:41:26 30° 266° (W) 16:49:28 435.800 - 435.900 CW/SSB
UOSAT-12 23 Aug 16:54:42 16:59:11 41° 55° (NE) 17:03:35 437.025 FM, 437.400 FM
